Location: Aydie
(43.5695°N, 0.1043°W)
Time: 11:42:00
(UTC+00:00)

Cosmos 1812 - Pass Details

Date: 17 November 2025
Orbit: 339 x 349 km, 82.5° (Epoch: 11 December)

Event Time Altitude Azimuth Distance (km) Brightness Sun altitude
Rises 17:20:13 0° 165° (SSE) 2,244 6.0 -8.7°
Reaches altitude 10° 17:22:21 10° 153° (SSE) 1,393 4.8 -9.1°
Maximum altitude 17:24:59 27° 92° (E) 761 3.0 -9.5°
Drops below altitude 10° 17:27:36 10° 32° (NNE) 1,390 4.4 -10.0°
Enters shadow 17:27:56 - 29° (NNE) 1,512 4.6 -10.0°
